This demonstration page uses our WeatherBlox Daily Observations layout. Learn more.

40.92945, -100.16068

Hourly Observations for January 1, 2018

Temp ( °F °C ) Dew Point ( °F °C ) Humidity (%) Winds ( mph kmh ) Pressure ( in mb ) Visibility ( mi km ) Precip ( " mm )
12:15 am 00:15 Cloudy -4 -20 -10 -23.2 76 76 N 5 7 31.04 1051 10 16.0934 0 0
12:35 am 00:35 Cloudy -3 -19.7 -9 -23 75 75 Calm 31.04 1051 10 16.0934 0 0
12:55 am 00:55 Cloudy -3 -19.3 -9 -22.8 74 74 Calm 31.04 1051 10 16.0934 0 0
1:15 am 01:15 Cloudy -2 -19 -9 -22.8 72 72 Calm 31.04 1051 10 16.0934 0 0
1:35 am 01:35 Cloudy -2 -19 -9 -23 71 71 Calm 31.04 1051 10 16.0934 0 0
1:55 am 01:55 Cloudy -2 -18.8 -9 -23 70 70 Calm 31.04 1051 10 16.0934 0 0
2:15 am 02:15 Cloudy -2 -18.7 -9 -22.7 71 71 Calm 31.04 1051 10 16.0934 0 0
2:35 am 02:35 Cloudy -1 -18.6 -9 -23 69 69 Calm 31.04 1051 10 16.0934 0 0
2:55 am 02:55 Cloudy -1 -18.3 -9 -22.5 70 70 Calm 31.04 1051 10 16.0934 0 0
3:15 am 03:15 Cloudy -1 -18.2 -9 -22.7 68 68 Calm 31.04 1051 10 16.0934 0 0
3:35 am 03:35 Cloudy -1 -18.1 -8 -22.2 70 70 Calm 31.04 1051 10 16.0934 0 0
3:55 am 03:55 Cloudy 0 -18 -8 -22 71 71 Calm 31.01 1050 10 16.0934 0 0
4:15 am 04:15 Cloudy 0 -18 -8 -22 71 71 Calm 31.01 1050 10 16.0934 0 0
4:35 am 04:35 Cloudy 0 -17.8 -9 -22.5 67 67 Calm 31.01 1050 10 16.0934 0 0
4:55 am 04:55 Cloudy 0 -17.6 -8 -22 69 69 Calm 31.01 1050 10 16.0934 0 0
5:15 am 05:15 Cloudy 1 -17.5 -7 -21.8 69 69 Calm 31.01 1050 10 16.0934 0 0
5:35 am 05:35 Cloudy 1 -17.5 -7 -21.6 71 71 Calm 30.98 1049 10 16.0934 0 0
5:55 am 05:55 Cloudy 1 -17.3 -6 -21.3 71 71 Calm 30.98 1049 10 16.0934 0 0
6:15 am 06:15 Cloudy 1 -17.1 -6 -21.2 71 71 Calm 30.98 1049 10 16.0934 0 0
6:35 am 06:35 Cloudy 2 -16.9 -6 -20.9 71 71 Calm 30.98 1049 10 16.0934 0 0
6:55 am 06:55 Cloudy 2 -16.7 -5 -20.6 72 72 SSE 5 7 30.98 1049 10 16.0934 0 0
7:15 am 07:15 Cloudy 2 -16.7 -5 -20.7 71 71 S 5 7 30.98 1049 10 16.0934 0 0
7:35 am 07:35 Cloudy 2 -16.7 -5 -20.7 71 71 SSE 5 7 30.98 1049 10 16.0934 0 0
7:55 am 07:55 Cloudy 2 -16.6 -5 -20.6 71 71 S 5 7 30.98 1049 10 16.0934 0 0
8:15 am 08:15 Cloudy 2 -16.6 -5 -20.6 71 71 S 6 9 30.98 1049 10 16.0934 0 0
8:35 am 08:35 Cloudy 2 -16.5 -5 -20.5 71 71 S 5 7 30.98 1049 10 16.0934 0 0
8:55 am 08:55 Cloudy 2 -16.5 -5 -20.5 71 71 SSE 6 9 30.98 1049 10 16.0934 0 0
9:15 am 09:15 Cloudy 3 -16.3 -5 -20.3 71 71 S 5 7 30.98 1049 10 16.0934 0 0
9:35 am 09:35 Cloudy 3 -16.2 -4 -20.2 72 72 S 6 9 30.98 1049 10 16.0934 0 0
9:55 am 09:55 Cloudy 3 -15.9 -4 -20.1 70 70 S 7 11 30.98 1049 10 16.0934 0 0
10:15 am 10:15 Cloudy 4 -15.8 -4 -20 70 70 S 8 13 30.98 1049 10 16.0934 0 0
10:35 am 10:35 Cloudy 4 -15.6 -3 -19.7 71 71 S 8 13 30.95 1048 10 16.0934 0 0
10:55 am 10:55 Cloudy 4 -15.3 -3 -19.6 70 70 S 9 15 30.95 1048 10 16.0934 0 0
11:15 am 11:15 Cloudy 5 -15.1 -4 -19.9 67 67 SSW 8 13 30.95 1048 10 16.0934 0 0
11:35 am 11:35 Cloudy 5 -15 -3 -19.5 69 69 SSE 8 13 30.92 1047 10 16.0934 0 0
11:55 am 11:55 Cloudy 6 -14.7 -3 -19.3 68 68 S 7 11 30.95 1048 10 16.0934 0 0
12:15 pm 12:15 Cloudy 6 -14.7 -2 -19 70 70 S 8 13 30.92 1047 10 16.0934 0 0
12:35 pm 12:35 Cloudy with Light Snow 6 -14.5 -2 -18.7 71 71 S 7 11 30.92 1047 10 16.0934 0 0
12:55 pm 12:55 Cloudy with Light Snow 6 -14.2 -1 -18.6 70 70 SSE 6 9 30.89 1046 5 8.0467 0 0
1:15 pm 13:15 Cloudy with Light Snow 7 -14.1 -1 -18.5 70 70 SSE 8 13 30.89 1046 5 8.0467 0 0
1:35 pm 13:35 Cloudy with Light Snow 7 -14 -1 -18.1 71 71 SSE 8 13 30.86 1045 7 11.26538 0 0
1:55 pm 13:55 Cloudy with Light Snow 7 -13.7 0 -17.7 72 72 SSE 8 13 30.83 1044 10 16.0934 0 0
2:15 pm 14:15 Cloudy with Light Snow 8 -13.5 1 -17.5 72 72 SSE 9 15 30.83 1044 10 16.0934 0 0
2:35 pm 14:35 Cloudy 8 -13.2 1 -17.2 72 72 SSE 8 13 30.8 1043 10 16.0934 0 0
2:55 pm 14:55 Cloudy with Light Snow 9 -13 1 -17 72 72 SSE 9 15 30.8 1043 10 16.0934 0 0
3:15 pm 15:15 Cloudy with Light Snow 9 -12.8 2 -16.8 72 72 SE 10 17 30.8 1043 10 16.0934 0 0
3:35 pm 15:35 Mostly Cloudy 9 -12.7 2 -16.7 72 72 SE 9 15 30.8 1043 10 16.0934 0 0
3:55 pm 15:55 Partly Cloudy 9 -13 1 -17 72 72 SSE 10 17 30.8 1043 10 16.0934 0 0
4:15 pm 16:15 Partly Cloudy 8 -13.1 1 -17.1 72 72 SE 9 15 30.8 1043 10 16.0934 0 0
4:35 pm 16:35 Mostly Cloudy 8 -13.3 1 -17.2 73 73 ESE 7 11 30.8 1043 10 16.0934 0 0
4:55 pm 16:55 Cloudy 8 -13.3 1 -17.1 73 73 SE 9 15 30.8 1043 10 16.0934 0 0
5:15 pm 17:15 Mostly Cloudy 7 -13.7 1 -17.5 73 73 SE 8 13 30.8 1043 10 16.0934 0 0
5:35 pm 17:35 Partly Cloudy 7 -13.9 0 -17.6 74 74 SE 9 15 30.8 1043 10 16.0934 0 0
5:55 pm 17:55 Clear -5 -20.6 -12 -24.7 70 70 NE 5 7 31.01 1050 10 16.0934 0 0
6:15 pm 18:15 Clear 6 -14.7 0 -18 76 76 SE 6 9 30.83 1044 10 16.0934 0 0
6:35 pm 18:35 Clear 5 -14.8 -1 -18.2 76 76 SE 5 7 30.83 1044 10 16.0934 0 0
6:55 pm 18:55 Clear 5 -15.2 -1 -18.5 76 76 ESE 6 9 30.83 1044 10 16.0934 0 0
7:15 pm 19:15 Clear 4 -15.4 -1 -18.5 77 77 SE 7 11 30.83 1044 10 16.0934 0 0
7:35 pm 19:35 Clear 4 -15.3 -2 -18.7 75 75 SE 7 11 30.83 1044 10 16.0934 0 0
7:55 pm 19:55 Clear 4 -15.5 -2 -18.7 77 77 SE 7 11 30.83 1044 10 16.0934 0 0
8:15 pm 20:15 Clear 4 -15.5 -2 -19 75 75 SE 6 9 30.83 1044 10 16.0934 0 0
8:35 pm 20:35 Clear 2 -16.5 -4 -20 75 75 SSE 8 13 30.83 1044 10 16.0934 0 0
8:55 pm 20:55 Clear 2 -16.5 -4 -20 75 75 SSE 8 13 30.83 1044 10 16.0934 0 0
9:15 pm 21:15 Clear 1 -17.5 -6 -20.9 75 75 SSE 7 11 30.86 1045 10 16.0934 0 0
9:35 pm 21:35 Clear 2 -16.9 -5 -20.5 74 74 SE 5 7 30.86 1045 10 16.0934 0 0
9:55 pm 21:55 Clear 2 -16.6 -4 -20.2 74 74 SE 7 11 30.83 1044 10 16.0934 0 0
10:15 pm 22:15 Clear 1 -17.1 -5 -20.7 74 74 SE 7 11 30.86 1045 10 16.0934 0 0
10:35 pm 22:35 Clear 2 -16.7 -5 -20.5 73 73 SE 7 11 30.83 1044 10 16.0934 0 0
10:55 pm 22:55 Clear 2 -16.8 -5 -20.6 73 73 SSE 7 11 30.86 1045 10 16.0934 0 0
11:15 pm 23:15 Clear -1 -18.1 -7 -21.5 75 75 SSE 5 7 30.86 1045 10 16.0934 0 0
11:35 pm 23:35 Clear 0 -18 -7 -21.4 75 75 SE 3 6 30.86 1045 10 16.0934 0 0
11:55 pm 23:55 Clear -1 -18.2 -7 -21.8 74 74 Calm 30.86 1045 10 16.0934 0 0

Powered by AerisWeather